Home > Weather > Homburg (Saar) > Past weeks

Flag for Germany Weather for the Past 2 Weeks in Homburg (Saar), Saarland, Germany

Now
43 °F

Partly cloudy.


Feels Like: 34 °F
Forecast: 35 / 39 °F
Wind: 20 mph from Southwest

Location: Saarbruecken / Ensheim

Current Time: Feb 9, 2016 at 5:40:20 AM

Latest Report: Feb 9, 2016 at 4:50 AM


Visibility: N/A

Pressure: 29.65 "Hg

Humidity: 81%

Dew point: 37 °F

Location of Homburg (Saar)Location

Historic Weather in Homburg (Saar) — Graph

°F

Homburg (Saar) Temperature Yesterday

Maximum temperature yesterday: 46 °F (at 11:50 AM)
Minimum temperature yesterday: 39 °F (at 1:50 AM)
Average temperature yesterday: 43 °F

High & Low Weather Summary for the Past Weeks

 TemperatureHumidityPressure
High57 °F (Jan 25, 2:50 PM)100% (Jan 28, 9:20 AM)30.42 "Hg (Jan 28, 9:20 AM)
Low34 °F (Feb 3, 8:50 PM)44% (Jan 25, 2:50 PM)29.47 "Hg (Feb 8, 11:20 AM)
Average44 °F84%30.10 "Hg
* Reported Jan 25 3:20 AM — Feb 9 3:50 AM, Homburg (Saar), Weather by CustomWeather, © 2016

Note: Actual official high and low records may vary slightly from our data, if they occured in-between our weather recording intervals... More about our weather records

Advertising

Homburg (Saar) Weather History for the Previous 24 Hours

 ConditionsComfort  
Time TempWeatherWind HumidityBarometerVisibility
3:50 AM
Tue, Feb 9
43 °FPassing clouds.15 mph81%29.65 "HgN/A
3:20 AM43 °FPassing clouds.15 mph81%29.65 "HgN/A
2:50 AM43 °FPassing clouds.18 mph81%29.68 "HgN/A
2:20 AM43 °FPassing clouds.16 mph76%29.68 "HgN/A
1:50 AM43 °FPassing clouds.17 mph81%29.68 "HgN/A
1:20 AM43 °FPassing clouds.18 mph81%29.68 "HgN/A
12:50 AM43 °FPassing clouds.21 mph81%29.68 "HgN/A
12:20 AM43 °FPassing clouds.22 mph81%29.68 "HgN/A
11:50 PM
Mon, Feb 8
45 °FPassing clouds.24 mph76%29.68 "HgN/A
11:20 PM45 °FPassing clouds.22 mph71%29.68 "HgN/A
10:50 PM43 °FPartly cloudy.21 mph76%29.68 "HgN/A
10:20 PM43 °FPassing clouds.20 mph76%29.65 "HgN/A
9:50 PM43 °FPartly cloudy.16 mph87%29.65 "HgN/A
9:20 PM43 °FPartly cloudy.20 mph81%29.65 "HgN/A
8:50 PM41 °FPassing clouds.18 mph81%29.65 "HgN/A
8:20 PM41 °FPassing clouds.21 mph76%29.62 "HgN/A
7:50 PM41 °FPassing clouds.21 mph81%29.62 "HgN/A
7:20 PM41 °FPassing clouds.24 mph81%29.59 "HgN/A
6:50 PM43 °FPartly cloudy.32 mph81%29.59 "HgN/A
6:20 PM43 °FPassing clouds.20 mph81%29.59 "HgN/A
5:50 PM41 °FPassing clouds.23 mph81%29.56 "HgN/A
5:20 PM41 °FScattered clouds.28 mph81%29.56 "HgN/A
4:50 PM43 °FThundershowers. Scattered clouds.24 mph87%29.56 "Hg6 mi
4:20 PM45 °FPartly sunny.21 mph81%29.53 "HgN/A
3:50 PM45 °FScattered clouds.26 mph87%29.50 "HgN/A
3:20 PM45 °FRain showers. Broken clouds.20 mph87%29.50 "Hg4 mi
2:50 PM45 °FSprinkles. Broken clouds.22 mph81%29.47 "HgN/A
2:20 PM45 °FSprinkles. Scattered clouds.21 mph87%29.47 "HgN/A
1:50 PM45 °FSprinkles. Broken clouds.21 mph81%29.50 "HgN/A
1:20 PM45 °FRain showers. Partly sunny.32 mph87%29.50 "HgN/A
12:50 PM45 °FSprinkles. Broken clouds.18 mph87%29.50 "HgN/A
12:20 PM43 °FRain showers. Partly sunny.24 mph93%29.50 "HgN/A
11:50 AM46 °FRain. Fog.32 mph87%29.50 "Hg3 mi
11:20 AM45 °FLight rain. Partly sunny.31 mph87%29.47 "Hg4 mi
10:50 AM45 °FLight rain. Partly sunny.31 mph87%29.50 "HgN/A
10:20 AM45 °FLight rain. Partly sunny.30 mph87%29.50 "Hg4 mi
9:50 AM45 °FLight rain. Partly sunny.26 mph87%29.53 "Hg5 mi
9:20 AM45 °FRain. Fog.30 mph81%29.53 "Hg3 mi
8:50 AM45 °FPartly sunny.28 mph76%29.53 "HgN/A
8:20 AM45 °FLight rain. Partly sunny.31 mph76%29.53 "HgN/A
7:50 AM43 °FLight rain. Partly cloudy.29 mph81%29.56 "HgN/A
7:20 AM45 °FPassing clouds.25 mph71%29.56 "HgN/A
6:50 AM43 °FPassing clouds.25 mph81%29.56 "HgN/A
6:20 AM45 °FPassing clouds.24 mph71%29.59 "HgN/A
5:50 AM43 °FPassing clouds.24 mph76%29.62 "HgN/A
5:20 AM43 °FPassing clouds.23 mph76%29.62 "HgN/A
Weather by CustomWeather, © 2016

See weather overviewHow to use our weather pages